Bartlesville, OK

2:09 PM CST on December 02, 2016 (GMT -0600)
Bartlesville Municipal

Weather History for KBVO - June, 2014

Change the Weather History Date:

Wednesday, June 18, 2014

  Actual Average Record
Temperature  
Mean Temperature 82 °F -  
Max Temperature 89 °F 89 °F 101 °F (1953)
Min Temperature 75 °F 66 °F 53 °F (1961)
Cooling Degree Days 16    
Growing Degree Days 32 (Base 50)    
Moisture  
Dew Point 72 °F    
Average Humidity 71    
Maximum Humidity 90    
Minimum Humidity 59    
Precipitation  
Precipitation 0.00 in - - ()
Sea Level Pressure  
Sea Level Pressure 29.86 in    
Wind  
Wind Speed 11 mph (South)    
Max Wind Speed 17 mph    
Max Gust Speed 26 mph    
Visibility 10 miles    
Events      
Averages and records for this station are not official NWS values.
T = Trace of Precipitation, MM = Missing Value Source: NWS Daily Summary

Daily Weather History Graph

Daily Weather History Graph

Search for Another Location

Airport or City:

Trip Planner

Search our weather history database for the weather conditions in past years. The results will help you decide how hot, cold, wet, or windy it might be!

Date:

Astronomy

Jun. 18, 2014 Rise Set
Actual Time 6:04 AM CDT 8:45 PM CDT
Civil Twilight 5:34 AM CDT 9:16 PM CDT
Nautical Twilight 4:55 AM CDT 9:54 PM CDT
Astronomical Twilight 4:12 AM CDT 10:37 PM CDT
Moon 12:23 AM CDT (6/18) 12:20 PM CDT (6/18)
Length of Visible Light 15h 42m
Length of Day
14h 40m
Waning Gibbous, 62% of the Moon is Illuminated
Jun 18
Waning Gibbous
Jun 19
Last Quarter
Jun 27
New
Jul 5
First Quarter
Jul 12
Full

Hourly Weather History & Observations

Time (CDT) Temp. Heat Index Dew Point Humidity Pressure Visibility Wind Dir Wind Speed Gust Speed Precip Events Conditions
12:53 AM 79.0 °F - 71.1 °F 77% 29.84 in 10.0 mi South 11.5 mph 19.6 mph N/A   Clear
1:53 AM 78.1 °F - 71.1 °F 79% 29.85 in 10.0 mi South 8.1 mph 18.4 mph N/A   Clear
2:53 AM 77.0 °F - 71.1 °F 82% 29.85 in 10.0 mi South 10.4 mph 16.1 mph N/A   Clear
3:53 AM 75.9 °F - 72.0 °F 87% 29.86 in 10.0 mi South 9.2 mph - N/A   Clear
5:53 AM 75.0 °F - 72.0 °F 90% 29.86 in 10.0 mi South 10.4 mph - N/A   Clear
6:53 AM 75.0 °F - 72.0 °F 90% 29.87 in 10.0 mi South 8.1 mph - N/A   Clear
7:53 AM 78.1 °F - 72.0 °F 81% 29.88 in 10.0 mi South 10.4 mph - N/A   Clear
8:53 AM 81.0 °F 85.2 °F 72.0 °F 74% 29.88 in 10.0 mi South 9.2 mph - N/A   Clear
9:53 AM 82.9 °F 87.5 °F 71.1 °F 67% 29.88 in 10.0 mi SSW 17.3 mph 25.3 mph N/A   Clear
10:53 AM 84.0 °F 89.6 °F 72.0 °F 67% 29.87 in 10.0 mi SSW 12.7 mph 23.0 mph N/A   Scattered Clouds
11:53 AM 84.9 °F 90.7 °F 72.0 °F 65% 29.87 in 10.0 mi South 16.1 mph 23.0 mph N/A   Scattered Clouds
12:53 PM 86.0 °F 93.0 °F 73.0 °F 65% 29.87 in 10.0 mi South 11.5 mph 20.7 mph N/A   Partly Cloudy
1:53 PM 87.1 °F 94.5 °F 73.0 °F 63% 29.86 in 10.0 mi South 13.8 mph 24.2 mph N/A   Clear
2:53 PM 87.1 °F 94.5 °F 73.0 °F 63% 29.86 in 10.0 mi South 12.7 mph 24.2 mph N/A   Mostly Cloudy
3:53 PM 86.0 °F 93.0 °F 73.0 °F 65% 29.86 in 10.0 mi South 9.2 mph - N/A   Mostly Cloudy
4:53 PM 88.0 °F 95.6 °F 73.0 °F 61% 29.85 in 10.0 mi South 12.7 mph 21.9 mph N/A   Scattered Clouds
5:53 PM 88.0 °F 94.7 °F 72.0 °F 59% 29.84 in 10.0 mi South 16.1 mph 26.5 mph N/A   Clear
6:53 PM 86.0 °F 91.5 °F 71.1 °F 61% 29.84 in 10.0 mi South 10.4 mph 20.7 mph N/A   Clear
7:53 PM 84.0 °F 89.0 °F 71.1 °F 65% 29.85 in 10.0 mi South 8.1 mph - N/A   Clear
8:53 PM 82.0 °F 85.9 °F 70.0 °F 67% 29.86 in 10.0 mi South 5.8 mph - N/A   Clear
9:53 PM 80.1 °F 83.2 °F 70.0 °F 71% 29.88 in 10.0 mi South 5.8 mph - N/A   Clear
10:53 PM 80.1 °F 83.2 °F 70.0 °F 71% 29.89 in 10.0 mi South 6.9 mph - N/A   Clear
11:53 PM 79.0 °F - 70.0 °F 74% 29.89 in 10.0 mi South 6.9 mph - N/A   Clear